| time (UTC) | temp C | wind direction | speed KPH | gust KPH | rain 1hr cm | rain 24hr cm | rain mn cm | humidity % | barometer mb |
| 20260831122216 | 22 | 234 | 0.0 | 3.2 | 0.00 | 0.00 | 0.00 | 95 | 1022.5 |
| 20260831121715 | 22 | 215 | 0.0 | 3.2 | 0.00 | 0.00 | 0.00 | 95 | 1022.5 |
| 20260831121210 | 22 | 209 | 0.0 | 3.2 | 0.00 | 0.00 | 0.00 | 95 | 1022.2 |
| 20260831120645 | 22 | 217 | 0.0 | 1.6 | 0.00 | 0.00 | 0.00 | 95 | 1022.2 |
| 20260831120116 | 22 | 223 | 0.0 | 0.0 | 0.00 | 0.00 | 0.00 | 95 | 1022.4 |
| 20260831115609 | 22 | 202 | 0.0 | 0.0 | 0.00 | 0.00 | 0.00 | 94 | 1022.1 |
| 20260831115040 | 22 | 236 | 0.0 | 1.6 | 0.00 | 0.00 | 0.00 | 94 | 1022.0 |
| 20260831114536 | 22 | 238 | 0.0 | 1.6 | 0.00 | 0.00 | 0.00 | 94 | 1021.8 |
| 20260831114030 | 22 | 221 | 0.0 | 1.6 | 0.00 | 0.00 | 0.00 | 94 | 1021.8 |
| 20260831113529 | 22 | 221 | 0.0 | 3.2 | 0.00 | 0.00 | 0.00 | 94 | 1021.7 |
| 20260831113015 | 22 | 236 | 0.0 | 3.2 | 0.00 | 0.00 | 0.00 | 94 | 1021.8 |
| 20260831112515 | 22 | 229 | 0.0 | 3.2 | 0.00 | 0.00 | 0.00 | 94 | 1021.7 |
| 20260831111946 | 22 | 206 | 0.0 | 3.2 | 0.00 | 0.00 | 0.00 | 94 | 1021.6 |
| 20260831111421 | 22 | 238 | 0.0 | 1.6 | 0.00 | 0.00 | 0.00 | 94 | 1021.7 |
| 20260831110854 | 22 | 209 | 0.0 | 1.6 | 0.00 | 0.00 | 0.00 | 94 | 1021.5 |
| 20260831110354 | 22 | 213 | 0.0 | 6.4 | 0.00 | 0.00 | 0.00 | 94 | 1021.4 |
| 20260831105849 | 22 | 225 | 0.0 | 6.4 | 0.00 | 0.00 | 0.00 | 94 | 1021.3 |
| 20260831105625 | 22 | 208 | 0.0 | 6.4 | 0.00 | 0.00 | 0.00 | 94 | 1021.2 |
| 20260831104824 | 22 | 227 | 0.0 | 6.4 | 0.00 | 0.00 | 0.00 | 94 | 1021.2 |
| 20260831104323 | 22 | 223 | 0.0 | 3.2 | 0.00 | 0.00 | 0.00 | 94 | 1021.1 |
| 20260831104033 | 22 | 216 | 0.0 | 3.2 | 0.00 | 0.00 | 0.00 | 94 | 1021.2 |
| 20260831103300 | 22 | 225 | 0.0 | 8.0 | 0.00 | 0.00 | 0.00 | 94 | 1021.3 |
| 20260831102759 | 22 | 228 | 0.0 | 8.0 | 0.00 | 0.00 | 0.00 | 94 | 1021.3 |
| 20260831102305 | 22 | 207 | 1.6 | 12.9 | 0.00 | 0.00 | 0.00 | 94 | 1021.3 |
| 20260831102021 | 22 | 239 | 1.6 | 12.9 | 0.00 | 0.00 | 0.00 | 94 | 1021.3 |
| 20260831101252 | 22 | 240 | 0.0 | 9.7 | 0.00 | 0.00 | 0.00 | 94 | 1021.3 |
| 20260831100726 | 22 | 210 | 0.0 | 9.7 | 0.00 | 0.00 | 0.00 | 94 | 1021.2 |
| 20260831100158 | 22 | 228 | 0.0 | 8.0 | 0.00 | 0.00 | 0.00 | 94 | 1021.2 |
| 20260831095658 | 22 | 203 | 0.0 | 8.0 | 0.00 | 0.00 | 0.00 | 94 | 1021.2 |
| 20260831095146 | 22 | 227 | 0.0 | 4.8 | 0.00 | 0.00 | 0.00 | 94 | 1021.2 |
| 20260831094618 | 22 | 190 | 0.0 | 4.8 | 0.00 | 0.00 | 0.00 | 94 | 1021.0 |
| 20260831094114 | 22 | 215 | 0.0 | 4.8 | 0.00 | 0.00 | 0.00 | 94 | 1021.1 |
| 20260831093825 | 22 | 223 | 0.0 | 11.3 | 0.00 | 0.00 | 0.00 | 94 | 1021.2 |
| 20260831093020 | 22 | 229 | 0.0 | 11.3 | 0.00 | 0.00 | 0.00 | 94 | 1021.3 |
| 20260831092735 | 22 | 226 | 0.0 | 14.5 | 0.00 | 0.00 | 0.00 | 93 | 1021.2 |
| 20260831092007 | 22 | 216 | 0.0 | 14.5 | 0.00 | 0.00 | 0.00 | 93 | 1021.2 |
| 20260831091944 | 22 | 211 | 0.0 | 8.0 | 0.00 | 0.00 | 0.00 | 93 | 1021.2 |
| 20260831091438 | 22 | 214 | 0.0 | 8.0 | 0.00 | 0.00 | 0.00 | 93 | 1021.1 |
| 20260831090428 | 22 | 222 | 0.0 | 8.0 | 0.00 | 0.00 | 0.00 | 93 | 1021.1 |
| 20260831085928 | 22 | 213 | 0.0 | 6.4 | 0.00 | 0.00 | 0.00 | 93 | 1021.1 |
| 20260831085410 | 22 | 214 | 0.0 | 6.4 | 0.00 | 0.00 | 0.00 | 93 | 1021.0 |
| 20260831085142 | 22 | 206 | 0.0 | 3.2 | 0.00 | 0.00 | 0.00 | 93 | 1021.1 |
| 20260831084410 | 22 | 225 | 0.0 | 16.1 | 0.00 | 0.00 | 0.00 | 93 | 1021.1 |
| 20260831083900 | 22 | 214 | 0.0 | 16.1 | 0.00 | 0.00 | 0.00 | 92 | 1021.1 |
| 20260831083633 | 22 | 213 | 0.0 | 3.2 | 0.00 | 0.00 | 0.00 | 92 | 1021.1 |
| 20260831082837 | 22 | 226 | 0.0 | 11.3 | 0.00 | 0.00 | 0.00 | 92 | 1021.0 |
| 20260831082327 | 22 | 227 | 0.0 | 11.3 | 0.00 | 0.00 | 0.00 | 92 | 1021.0 |
| 20260831082059 | 22 | 242 | 0.0 | 11.3 | 0.00 | 0.00 | 0.00 | 92 | 1020.9 |
| 20260831081305 | 22 | 189 | 0.0 | 11.3 | 0.00 | 0.00 | 0.00 | 92 | 1020.8 |
| 20260831080805 | 23 | 229 | 0.0 | 9.7 | 0.00 | 0.00 | 0.00 | 92 | 1020.8 |
| 20260831080536 | 23 | 234 | 0.0 | 6.4 | 0.00 | 0.00 | 0.00 | 92 | 1020.9 |
| 20260831075805 | 23 | 246 | 0.0 | 4.8 | 0.00 | 0.00 | 0.00 | 92 | 1020.9 |
| 20260831075252 | 23 | 215 | 0.0 | 12.9 | 0.00 | 0.00 | 0.00 | 92 | 1020.9 |
| 20260831074727 | 23 | 235 | 0.0 | 11.3 | 0.00 | 0.00 | 0.00 | 92 | 1020.9 |
| 20260831074228 | 23 | 226 | 0.0 | 6.4 | 0.00 | 0.00 | 0.00 | 92 | 1020.9 |
| 20260831073727 | 22 | 234 | 0.0 | 6.4 | 0.00 | 0.00 | 0.00 | 91 | 1020.9 |
| 20260831073158 | 22 | 186 | 0.0 | 12.9 | 0.00 | 0.00 | 0.00 | 91 | 1020.8 |
| 20260831072634 | 22 | 182 | 0.0 | 12.9 | 0.00 | 0.00 | 0.00 | 91 | 1020.9 |
| 20260831072117 | 22 | 190 | 1.6 | 14.5 | 0.00 | 0.00 | 0.00 | 91 | 1020.8 |
| 20260831071614 | 22 | 236 | 1.6 | 14.5 | 0.00 | 0.00 | 0.00 | 91 | 1020.8 |
| 20260831071346 | 22 | 240 | 0.0 | 12.9 | 0.00 | 0.00 | 0.00 | 91 | 1021.0 |
| 20260831070839 | 22 | 202 | 0.0 | 12.9 | 0.00 | 0.00 | 0.00 | 91 | 1020.9 |
| 20260831070104 | 22 | 219 | 0.0 | 12.9 | 0.00 | 0.00 | 0.00 | 91 | 1021.1 |
| 20260831065602 | 22 | 177 | 1.6 | 12.9 | 0.00 | 0.00 | 0.00 | 91 | 1021.2 |
| 20260831065042 | 22 | 184 | 1.6 | 14.5 | 0.00 | 0.00 | 0.00 | 91 | 1021.2 |
| 20260831064535 | 22 | 206 | 1.6 | 14.5 | 0.00 | 0.00 | 0.00 | 91 | 1021.3 |
| 20260831064017 | 22 | 210 | 0.0 | 11.3 | 0.00 | 0.00 | 0.00 | 91 | 1021.4 |
| 20260831063521 | 22 | 196 | 1.6 | 12.9 | 0.00 | 0.00 | 0.00 | 91 | 1021.5 |
| 20260831063517 | 22 | 194 | 1.6 | 12.9 | 0.00 | 0.00 | 0.00 | 91 | 1021.4 |
| 20260831062456 | 22 | 190 | 0.0 | 12.9 | 0.00 | 0.00 | 0.00 | 91 | 1021.5 |
| 20260831061934 | 22 | 164 | 0.0 | 16.1 | 0.00 | 0.00 | 0.00 | 90 | 1021.6 |
| 20260831061404 | 22 | 181 | 0.0 | 16.1 | 0.00 | 0.00 | 0.00 | 90 | 1021.7 |
| 20260831060839 | 22 | 199 | 0.0 | 3.2 | 0.00 | 0.00 | 0.00 | 90 | 1021.7 |
| 20260831060321 | 22 | 231 | 0.0 | 9.7 | 0.00 | 0.00 | 0.00 | 90 | 1021.8 |
| 20260831060026 | 22 | 193 | 0.0 | 9.7 | 0.00 | 0.00 | 0.00 | 90 | 1021.9 |
| 20260831055237 | 22 | 180 | 0.0 | 8.0 | 0.00 | 0.00 | 0.00 | 90 | 1021.9 |
| 20260831054951 | 23 | 185 | 0.0 | 8.0 | 0.00 | 0.00 | 0.00 | 89 | 1021.9 |
| 20260831054714 | 23 | 180 | 0.0 | 8.0 | 0.00 | 0.00 | 0.00 | 89 | 1021.9 |
| 20260831053713 | 23 | 207 | 0.0 | 4.8 | 0.00 | 0.00 | 0.00 | 89 | 1022.0 |
| 20260831053153 | 23 | 189 | 0.0 | 9.7 | 0.00 | 0.00 | 0.00 | 89 | 1021.9 |
| 20260831052629 | 23 | 180 | 0.0 | 9.7 | 0.00 | 0.00 | 0.00 | 89 | 1022.1 |
| 20260831052114 | 23 | 197 | 0.0 | 0.0 | 0.00 | 0.00 | 0.00 | 89 | 1022.2 |
| 20260831051616 | 23 | 175 | 0.0 | 0.0 | 0.00 | 0.00 | 0.00 | 89 | 1022.2 |
| 20260831051046 | 23 | 181 | 0.0 | 3.2 | 0.00 | 0.00 | 0.00 | 88 | 1022.2 |
| 20260831050549 | 23 | 185 | 0.0 | 3.2 | 0.00 | 0.00 | 0.00 | 88 | 1022.4 |
| 20260831050023 | 23 | 194 | 0.0 | 9.7 | 0.00 | 0.00 | 0.00 | 88 | 1022.5 |
| 20260831045503 | 23 | 215 | 0.0 | 3.2 | 0.00 | 0.00 | 0.00 | 88 | 1022.5 |
| 20260831044934 | 23 | 213 | 0.0 | 11.3 | 0.00 | 0.00 | 0.00 | 88 | 1022.4 |
| 20260831044434 | 23 | 198 | 0.0 | 11.3 | 0.00 | 0.00 | 0.00 | 88 | 1022.5 |
| 20260831043907 | 23 | 186 | 0.0 | 11.3 | 0.00 | 0.00 | 0.00 | 88 | 1022.5 |
| 20260831043404 | 23 | 166 | 0.0 | 8.0 | 0.00 | 0.00 | 0.00 | 88 | 1022.5 |
| 20260831042907 | 23 | 184 | 0.0 | 8.0 | 0.00 | 0.00 | 0.00 | 88 | 1022.6 |
| 20260831042403 | 23 | 188 | 0.0 | 9.7 | 0.00 | 0.00 | 0.00 | 88 | 1022.6 |
| 20260831041904 | 23 | 188 | 0.0 | 9.7 | 0.00 | 0.00 | 0.00 | 88 | 1022.5 |
| 20260831041611 | 23 | 210 | 0.0 | 11.3 | 0.00 | 0.00 | 0.00 | 88 | 1022.5 |
| 20260831040835 | 23 | 179 | 0.0 | 11.3 | 0.00 | 0.00 | 0.00 | 88 | 1022.5 |
| 20260831040308 | 23 | 194 | 0.0 | 3.2 | 0.00 | 0.00 | 0.00 | 87 | 1022.5 |
| 20260831035804 | 23 | 192 | 0.0 | 8.0 | 0.00 | 0.00 | 0.00 | 87 | 1022.5 |
| 20260831035306 | 23 | 194 | 0.0 | 8.0 | 0.00 | 0.00 | 0.00 | 87 | 1022.4 |
| 20260831034803 | 23 | 185 | 0.0 | 8.0 | 0.00 | 0.00 | 0.00 | 87 | 1022.4 |
| 20260831034243 | 23 | 184 | 0.0 | 12.9 | 0.00 | 0.00 | 0.00 | 87 | 1022.5 |
| 20260831033732 | 23 | 179 | 0.0 | 12.9 | 0.00 | 0.00 | 0.00 | 87 | 1022.5 |
| 20260831033231 | 23 | 254 | 1.6 | 24.1 | 0.00 | 0.00 | 0.00 | 87 | 1022.4 |
| 20260831032706 | 23 | 186 | 1.6 | 24.1 | 0.00 | 0.00 | 0.00 | 87 | 1022.6 |
| 20260831032415 | 23 | 177 | 1.6 | 19.3 | 0.00 | 0.00 | 0.00 | 86 | 1022.5 |
| 20260831031850 | 23 | 236 | 1.6 | 19.3 | 0.00 | 0.00 | 0.00 | 86 | 1022.5 |
| 20260831031056 | 23 | 188 | 0.0 | 11.3 | 0.00 | 0.00 | 0.00 | 86 | 1022.5 |
| 20260831030558 | 23 | 221 | 0.0 | 11.3 | 0.00 | 0.00 | 0.00 | 85 | 1022.5 |
| 20260831030031 | 23 | 175 | 0.0 | 6.4 | 0.00 | 0.00 | 0.00 | 85 | 1022.4 |
| 20260831025508 | 23 | 213 | 0.0 | 9.7 | 0.00 | 0.00 | 0.00 | 84 | 1022.1 |
| 20260831025222 | 24 | 211 | 0.0 | 12.9 | 0.00 | 0.00 | 0.00 | 84 | 1022.1 |
| 20260831024425 | 24 | 148 | 0.0 | 12.9 | 0.00 | 0.00 | 0.00 | 84 | 1022.2 |
| 20260831023927 | 24 | 247 | 0.0 | 8.0 | 0.00 | 0.00 | 0.00 | 83 | 1022.5 |
| 20260831023419 | 24 | 211 | 0.0 | 8.0 | 0.00 | 0.00 | 0.00 | 82 | 1022.4 |
| 20260831022859 | 24 | 186 | 0.0 | 9.7 | 0.00 | 0.00 | 0.00 | 82 | 1022.4 |
| 20260831022329 | 24 | 199 | 0.0 | 9.7 | 0.00 | 0.00 | 0.00 | 82 | 1022.4 |
| 20260831021829 | 25 | 186 | 0.0 | 12.9 | 0.00 | 0.00 | 0.00 | 81 | 1022.4 |
| 20260831021301 | 25 | 186 | 1.6 | 12.9 | 0.00 | 0.00 | 0.00 | 81 | 1022.4 |
| 20260831020745 | 25 | 200 | 0.0 | 9.7 | 0.00 | 0.00 | 0.00 | 80 | 1022.5 |
| 20260831020249 | 25 | 206 | 0.0 | 12.9 | 0.00 | 0.00 | 0.00 | 80 | 1022.6 |
| 20260831015720 | 25 | 194 | 1.6 | 12.9 | 0.00 | 0.00 | 0.00 | 80 | 1022.6 |
| 20260831015217 | 25 | 204 | 0.0 | 11.3 | 0.00 | 0.00 | 0.00 | 79 | 1022.6 |
| 20260831014649 | 25 | 144 | 0.0 | 3.2 | 0.00 | 0.00 | 0.00 | 79 | 1022.6 |
| 20260831014403 | 25 | 206 | 0.0 | 4.8 | 0.00 | 0.00 | 0.00 | 78 | 1022.6 |
| 20260831013632 | 25 | 186 | 0.0 | 4.8 | 0.00 | 0.00 | 0.00 | 78 | 1022.6 |
| 20260831013128 | 25 | 252 | 0.0 | 14.5 | 0.00 | 0.00 | 0.00 | 78 | 1022.6 |
| 20260831012600 | 26 | 213 | 0.0 | 14.5 | 0.00 | 0.00 | 0.00 | 77 | 1022.4 |
| 20260831012032 | 26 | 192 | 0.0 | 14.5 | 0.00 | 0.00 | 0.00 | 76 | 1022.4 |
| 20260831011506 | 26 | 214 | 1.6 | 14.5 | 0.00 | 0.00 | 0.00 | 75 | 1022.2 |
| 20260831010936 | 26 | 180 | 1.6 | 16.1 | 0.00 | 0.00 | 0.00 | 74 | 1022.2 |
| 20260831010435 | 26 | 198 | 1.6 | 16.1 | 0.00 | 0.00 | 0.00 | 73 | 1022.1 |
| 20260831005921 | 26 | 132 | 0.0 | 17.7 | 0.00 | 0.00 | 0.00 | 72 | 1022.1 |
| 20260831005353 | 27 | 224 | 0.0 | 17.7 | 0.00 | 0.00 | 0.00 | 71 | 1021.8 |
| 20260831004852 | 27 | 182 | 1.6 | 9.7 | 0.00 | 0.00 | 0.00 | 69 | 1021.7 |
| 20260831004327 | 27 | 161 | 3.2 | 25.7 | 0.00 | 0.00 | 0.00 | 68 | 1021.8 |
| 20260831003825 | 27 | 172 | 1.6 | 25.7 | 0.00 | 0.00 | 0.00 | 67 | 1021.8 |
| 20260831003556 | 28 | 229 | 0.0 | 1.6 | 0.00 | 0.00 | 0.00 | 68 | 1022.0 |
| 20260831003140 | 28 | 183 | 0.0 | 0.0 | 0.00 | 0.00 | 0.00 | 68 | 1021.8 |
| 20260831003032 | 28 | 182 | 0.0 | 12.9 | 0.00 | 0.00 | 0.00 | 67 | 1021.7 |
| 20260831001757 | 28 | 203 | 0.0 | 12.9 | 0.00 | 0.00 | 0.00 | 67 | 1021.6 |
| 20260831001229 | 28 | 188 | 0.0 | 0.0 | 0.00 | 0.00 | 0.00 | 66 | 1021.5 |
| 20260831000728 | 28 | 189 | 0.0 | 4.8 | 0.00 | 0.00 | 0.00 | 66 | 1021.4 |
| 20260831000204 | 28 | 209 | 0.0 | 4.8 | 0.00 | 0.00 | 0.00 | 65 | 1021.4 |
| 20260830235636 | 28 | 192 | 0.0 | 12.9 | 0.00 | 0.00 | 0.00 | 65 | 1021.3 |
| 20260830235408 | 28 | 207 | 0.0 | 12.9 | 0.00 | 0.00 | 0.00 | 65 | 1021.4 |
| 20260830234609 | 29 | 163 | 0.0 | 9.7 | 0.00 | 0.00 | 0.00 | 66 | 1021.3 |
| 20260830234042 | 29 | 186 | 0.0 | 6.4 | 0.00 | 0.00 | 0.00 | 65 | 1021.3 |
| 20260830233539 | 29 | 117 | 0.0 | 3.2 | 0.00 | 0.00 | 0.00 | 66 | 1021.4 |
| 20260830233019 | 29 | 115 | 0.0 | 3.2 | 0.00 | 0.00 | 0.00 | 65 | 1021.4 |
| 20260830232516 | 30 | 136 | 0.0 | 11.3 | 0.00 | 0.00 | 0.00 | 65 | 1021.4 |
| 20260830232013 | 30 | 121 | 0.0 | 11.3 | 0.00 | 0.00 | 0.00 | 65 | 1021.4 |
| 20260830231742 | 30 | 196 | 0.0 | 9.7 | 0.00 | 0.00 | 0.00 | 64 | 1021.4 |
| 20260830230948 | 30 | 190 | 0.0 | 9.7 | 0.00 | 0.00 | 0.00 | 66 | 1021.4 |
| 20260830230943 | 30 | 159 | 0.0 | 1.6 | 0.00 | 0.00 | 0.00 | 66 | 1021.4 |
| 20260830225929 | 30 | 142 | 0.0 | 9.7 | 0.00 | 0.00 | 0.00 | 65 | 1021.4 |
| 20260830225426 | 30 | 105 | 1.6 | 17.7 | 0.00 | 0.00 | 0.00 | 65 | 1021.4 |
| 20260830224901 | 30 | 196 | 1.6 | 19.3 | 0.00 | 0.00 | 0.00 | 64 | 1021.4 |
| 20260830224337 | 30 | 205 | 0.0 | 6.4 | 0.00 | 0.00 | 0.00 | 63 | 1021.4 |
| 20260830223807 | 31 | 125 | 0.0 | 3.2 | 0.00 | 0.00 | 0.00 | 63 | 1021.3 |
| 20260830223307 | 31 | 129 | 0.0 | 4.8 | 0.00 | 0.00 | 0.00 | 64 | 1021.2 |
| 20260830223019 | 31 | 126 | 0.0 | 6.4 | 0.00 | 0.00 | 0.00 | 65 | 1021.1 |
| 20260830222253 | 31 | 148 | 0.0 | 6.4 | 0.00 | 0.00 | 0.00 | 65 | 1021.1 |
| 20260830221726 | 31 | 114 | 0.0 | 4.8 | 0.00 | 0.00 | 0.00 | 63 | 1021.1 |
| 20260830221211 | 31 | 82 | 0.0 | 4.8 | 0.00 | 0.00 | 0.00 | 63 | 1021.2 |
| 20260830220716 | 31 | 148 | 0.0 | 4.8 | 0.00 | 0.00 | 0.00 | 62 | 1021.2 |
| 20260830220147 | 32 | 158 | 0.0 | 4.8 | 0.00 | 0.00 | 0.00 | 61 | 1021.3 |
| 20260830215643 | 32 | 113 | 0.0 | 6.4 | 0.00 | 0.00 | 0.00 | 61 | 1021.3 |
| 20260830215119 | 32 | 112 | 0.0 | 6.4 | 0.00 | 0.00 | 0.00 | 58 | 1021.2 |
| 20260830214551 | 32 | 112 | 0.0 | 4.8 | 0.00 | 0.00 | 0.00 | 59 | 1021.2 |
| 20260830214048 | 32 | 127 | 0.0 | 3.2 | 0.00 | 0.00 | 0.00 | 61 | 1021.3 |
| 20260830213546 | 32 | 109 | 0.0 | 3.2 | 0.00 | 0.00 | 0.00 | 61 | 1021.3 |
| 20260830213043 | 31 | 88 | 0.0 | 8.0 | 0.00 | 0.00 | 0.00 | 62 | 1021.3 |
| 20260830212540 | 31 | 94 | 0.0 | 8.0 | 0.00 | 0.00 | 0.00 | 65 | 1021.1 |
| 20260830212018 | 30 | 106 | 0.0 | 14.5 | 0.00 | 0.00 | 0.00 | 68 | 1021.2 |
| 20260830211515 | 31 | 63 | 0.0 | 14.5 | 0.00 | 0.00 | 0.00 | 64 | 1021.4 |
| 20260830211455 | 31 | 36 | 0.0 | 11.3 | 0.00 | 0.00 | 0.00 | 66 | 1021.4 |
| 20260830210421 | 31 | 94 | 1.6 | 11.3 | 0.00 | 0.00 | 0.00 | 66 | 1021.4 |
| 20260830205920 | 31 | 105 | 1.6 | 8.0 | 0.00 | 0.00 | 0.00 | 67 | 1021.5 |
| 20260830205358 | 30 | 348 | 1.6 | 8.0 | 0.00 | 0.00 | 0.00 | 67 | 1021.6 |
| 20260830204901 | 30 | 130 | 1.6 | 14.5 | 0.00 | 0.00 | 0.00 | 69 | 1021.6 |
| 20260830204333 | 30 | 105 | 1.6 | 14.5 | 0.00 | 0.00 | 0.00 | 69 | 1021.6 |
| 20260830203831 | 30 | 116 | 1.6 | 11.3 | 0.00 | 0.00 | 0.00 | 69 | 1021.7 |
| 20260830203323 | 30 | 90 | 0.0 | 11.3 | 0.00 | 0.00 | 0.00 | 69 | 1021.8 |
| 20260830202822 | 30 | 132 | 1.6 | 19.3 | 0.00 | 0.00 | 0.00 | 69 | 1021.9 |
| 20260830202306 | 30 | 138 | 1.6 | 19.3 | 0.00 | 0.00 | 0.00 | 68 | 1022.0 |
| 20260830201805 | 30 | 82 | 0.0 | 8.0 | 0.00 | 0.00 | 0.00 | 68 | 1021.9 |
| 20260830201302 | 31 | 97 | 0.0 | 4.8 | 0.00 | 0.00 | 0.00 | 66 | 1022.0 |
| 20260830201008 | 31 | 119 | 0.0 | 9.7 | 0.00 | 0.00 | 0.00 | 66 | 1022.1 |
| 20260830200210 | 30 | 117 | 0.0 | 11.3 | 0.00 | 0.00 | 0.00 | 69 | 1022.1 |
| 20260830195914 | 30 | 105 | 0.0 | 11.3 | 0.00 | 0.00 | 0.00 | 69 | 1022.0 |
| 20260830195127 | 29 | 161 | 0.0 | 6.4 | 0.00 | 0.00 | 0.00 | 70 | 1022.0 |
| 20260830194630 | 29 | 55 | 0.0 | 1.6 | 0.00 | 0.00 | 0.00 | 69 | 1021.9 |
| 20260830194125 | 29 | 96 | 0.0 | 3.2 | 0.00 | 0.00 | 0.00 | 69 | 1022.1 |
| 20260830193623 | 30 | 99 | 0.0 | 3.2 | 0.00 | 0.00 | 0.00 | 68 | 1022.2 |
| 20260830193327 | 30 | 78 | 0.0 | 8.0 | 0.00 | 0.00 | 0.00 | 67 | 1022.1 |
| 20260830192553 | 29 | 124 | 0.0 | 8.0 | 0.00 | 0.00 | 0.00 | 70 | 1022.2 |
| 20260830192025 | 29 | 5 | 0.0 | 4.8 | 0.00 | 0.00 | 0.00 | 69 | 1022.1 |
| 20260830191515 | 29 | 97 | 0.0 | 4.8 | 0.00 | 0.00 | 0.00 | 70 | 1021.9 |
| 20260830191014 | 29 | 74 | 0.0 | 4.8 | 0.00 | 0.00 | 0.00 | 69 | 1022.0 |
| 20260830190513 | 30 | 88 | 0.0 | 3.2 | 0.00 | 0.00 | 0.00 | 68 | 1022.0 |
| 20260830190014 | 29 | 94 | 0.0 | 3.2 | 0.00 | 0.00 | 0.00 | 71 | 1022.1 |
| 20260830185455 | 28 | 86 | 0.0 | 3.2 | 0.00 | 0.00 | 0.00 | 71 | 1022.0 |
| 20260830184957 | 28 | 82 | 0.0 | 3.2 | 0.00 | 0.00 | 0.00 | 71 | 1022.0 |
| 20260830184455 | 28 | 69 | 0.0 | 1.6 | 0.00 | 0.00 | 0.00 | 71 | 1022.1 |
| 20260830183951 | 28 | 95 | 0.0 | 1.6 | 0.00 | 0.00 | 0.00 | 71 | 1022.4 |
| 20260830183447 | 28 | 57 | 0.0 | 6.4 | 0.00 | 0.00 | 0.00 | 72 | 1022.4 |
| 20260830182948 | 28 | 121 | 0.0 | 6.4 | 0.00 | 0.00 | 0.00 | 73 | 1022.6 |
| 20260830182425 | 27 | 60 | 0.0 | 11.3 | 0.00 | 0.00 | 0.00 | 74 | 1022.6 |
| 20260830182153 | 27 | 82 | 0.0 | 11.3 | 0.00 | 0.00 | 0.00 | 76 | 1022.8 |
| 20260830181652 | 27 | 94 | 0.0 | 8.0 | 0.00 | 0.00 | 0.00 | 74 | 1022.9 |
| 20260830180920 | 27 | 89 | 0.0 | 3.2 | 0.00 | 0.00 | 0.00 | 75 | 1022.8 |
| 20260830180355 | 27 | 111 | 0.0 | 8.0 | 0.00 | 0.00 | 0.00 | 75 | 1022.9 |
| 20260830175856 | 27 | 105 | 0.0 | 8.0 | 0.00 | 0.00 | 0.00 | 75 | 1022.7 |
| 20260830175334 | 27 | 96 | 0.0 | 11.3 | 0.00 | 0.00 | 0.00 | 77 | 1022.7 |
| 20260830174836 | 26 | 120 | 0.0 | 11.3 | 0.00 | 0.00 | 0.00 | 78 | 1022.8 |
| 20260830174309 | 26 | 94 | 0.0 | 3.2 | 0.00 | 0.00 | 0.00 | 78 | 1022.9 |
| 20260830173807 | 26 | 83 | 0.0 | 6.4 | 0.00 | 0.00 | 0.00 | 77 | 1023.1 |
| 20260830173306 | 26 | 104 | 0.0 | 9.7 | 0.00 | 0.00 | 0.00 | 79 | 1023.2 |
| 20260830172806 | 26 | 93 | 0.0 | 8.0 | 0.00 | 0.00 | 0.00 | 80 | 1023.3 |
| 20260830172242 | 25 | 80 | 0.0 | 11.3 | 0.00 | 0.00 | 0.00 | 80 | 1023.4 |
| 20260830171945 | 25 | 103 | 0.0 | 11.3 | 0.00 | 0.00 | 0.00 | 80 | 1023.5 |
| 20260830171442 | 25 | 104 | 0.0 | 4.8 | 0.00 | 0.00 | 0.00 | 81 | 1023.6 |
| 20260830170715 | 25 | 109 | 0.0 | 1.6 | 0.00 | 0.00 | 0.00 | 81 | 1023.6 |
| 20260830170158 | 25 | 123 | 0.0 | 1.6 | 0.00 | 0.00 | 0.00 | 81 | 1023.5 |
| 20260830165633 | 25 | 96 | 0.0 | 1.6 | 0.00 | 0.00 | 0.00 | 81 | 1023.4 |
| 20260830165116 | 25 | 130 | 0.0 | 1.6 | 0.00 | 0.00 | 0.00 | 81 | 1023.3 |
| 20260830164605 | 25 | 139 | 0.0 | 4.8 | 0.00 | 0.00 | 0.00 | 81 | 1023.5 |
| 20260830164100 | 25 | 120 | 0.0 | 4.8 | 0.00 | 0.00 | 0.00 | 81 | 1023.5 |
| 20260830163600 | 25 | 101 | 0.0 | 4.8 | 0.00 | 0.00 | 0.00 | 81 | 1023.5 |
| 20260830163536 | 25 | 102 | 0.0 | 4.8 | 0.00 | 0.00 | 0.00 | 80 | 1023.4 |
| 20260830162806 | 25 | 96 | 0.0 | 3.2 | 0.00 | 0.00 | 0.00 | 79 | 1023.3 |
| 20260830162011 | 25 | 102 | 0.0 | 4.8 | 0.00 | 0.00 | 0.00 | 80 | 1023.1 |
| 20260830161453 | 25 | 87 | 0.0 | 11.3 | 0.00 | 0.00 | 0.00 | 79 | 1022.8 |
| 20260830160947 | 25 | 84 | 0.0 | 11.3 | 0.00 | 0.00 | 0.00 | 79 | 1022.8 |
| 20260830160720 | 25 | 9 | 0.0 | 8.0 | 0.00 | 0.00 | 0.00 | 79 | 1022.6 |
| 20260830155923 | 25 | 99 | 0.0 | 8.0 | 0.00 | 0.00 | 0.00 | 78 | 1022.6 |
| 20260830155401 | 25 | 57 | 0.0 | 6.4 | 0.00 | 0.00 | 0.00 | 78 | 1022.6 |
| 20260830154853 | 25 | 94 | 0.0 | 3.2 | 0.00 | 0.00 | 0.00 | 79 | 1022.6 |
| 20260830154351 | 25 | 86 | 0.0 | 3.2 | 0.00 | 0.00 | 0.00 | 80 | 1022.4 |
| 20260830153853 | 25 | 24 | 0.0 | 3.2 | 0.00 | 0.00 | 0.00 | 80 | 1022.5 |
| 20260830153330 | 25 | 92 | 0.0 | 1.6 | 0.00 | 0.00 | 0.00 | 81 | 1022.4 |
| 20260830152803 | 25 | 38 | 0.0 | 3.2 | 0.00 | 0.00 | 0.00 | 83 | 1022.5 |
| 20260830152306 | 24 | 82 | 0.0 | 8.0 | 0.00 | 0.00 | 0.00 | 83 | 1022.6 |
| 20260830152030 | 24 | 84 | 0.0 | 8.0 | 0.00 | 0.00 | 0.00 | 84 | 1022.6 |
| 20260830151302 | 24 | 80 | 0.0 | 1.6 | 0.00 | 0.00 | 0.00 | 85 | 1022.6 |
| 20260830151255 | 23 | 80 | 0.0 | 1.6 | 0.00 | 0.00 | 0.00 | 85 | 1022.6 |
| 20260830150229 | 23 | 48 | 0.0 | 0.0 | 0.00 | 0.00 | 0.00 | 87 | 1022.8 |
| 20260830145659 | 23 | 83 | 0.0 | 3.2 | 0.00 | 0.00 | 0.00 | 88 | 1022.8 |
| 20260830145136 | 23 | 103 | 0.0 | 9.7 | 0.00 | 0.00 | 0.00 | 89 | 1022.7 |
| 20260830144840 | 22 | 85 | 0.0 | 6.4 | 0.00 | 0.00 | 0.00 | 90 | 1022.6 |
| 20260830144106 | 22 | 101 | 0.0 | 6.4 | 0.00 | 0.00 | 0.00 | 91 | 1022.7 |
| 20260830143547 | 21 | 81 | 0.0 | 6.4 | 0.00 | 0.00 | 0.00 | 92 | 1022.6 |
| 20260830143322 | 21 | 105 | 0.0 | 4.8 | 0.00 | 0.00 | 0.00 | 93 | 1022.5 |
| 20260830143047 | 21 | 90 | 0.0 | 4.8 | 0.00 | 0.00 | 0.00 | 92 | 1022.6 |
| 20260830142247 | 21 | 101 | 0.0 | 0.0 | 0.00 | 0.00 | 0.00 | 93 | 1022.4 |
| 20260830141514 | 21 | 90 | 0.0 | 0.0 | 0.00 | 0.00 | 0.00 | 93 | 1022.6 |
| 20260830141011 | 21 | 90 | 0.0 | 0.0 | 0.00 | 0.00 | 0.00 | 93 | 1022.8 |
| 20260830140502 | 21 | 90 | 0.0 | 0.0 | 0.00 | 0.00 | 0.00 | 93 | 1022.9 |
| 20260830135933 | 21 | 28 | 0.0 | 0.0 | 0.00 | 0.00 | 0.00 | 94 | 1022.9 |
| 20260830135408 | 21 | 69 | 0.0 | 0.0 | 0.00 | 0.00 | 0.00 | 94 | 1023.1 |
| 20260830134842 | 21 | 88 | 0.0 | 0.0 | 0.00 | 0.00 | 0.00 | 94 | 1023.1 |
| 20260830134545 | 21 | 71 | 0.0 | 0.0 | 0.00 | 0.00 | 0.00 | 94 | 1023.2 |
| 20260830133757 | 20 | 81 | 0.0 | 3.2 | 0.00 | 0.00 | 0.00 | 94 | 1023.0 |
| 20260830133256 | 20 | 86 | 0.0 | 3.2 | 0.00 | 0.00 | 0.00 | 94 | 1023.1 |
| 20260830132755 | 20 | 88 | 0.0 | 0.0 | 0.00 | 0.00 | 0.00 | 95 | 1023.1 |
| 20260830132226 | 20 | 88 | 0.0 | 0.0 | 0.00 | 0.00 | 0.00 | 95 | 1023.1 |
| 20260830132200 | 20 | 48 | 0.0 | 0.0 | 0.00 | 0.00 | 0.00 | 95 | 1022.7 |
| 20260830131806 | 20 | 96 | 0.0 | 0.0 | 0.00 | 0.00 | 0.00 | 95 | 1022.9 |
| 20260830130652 | 20 | 69 | 0.0 | 0.0 | 0.00 | 0.00 | 0.00 | 95 | 1022.7 |
| 20260830130142 | 20 | 33 | 0.0 | 3.2 | 0.00 | 0.00 | 0.00 | 95 | 1022.7 |
| 20260830125641 | 20 | 76 | 0.0 | 3.2 | 0.00 | 0.00 | 0.00 | 95 | 1022.7 |
| 20260830125115 | 20 | 39 | 0.0 | 4.8 | 0.00 | 0.00 | 0.00 | 95 | 1022.7 |
| 20260830124546 | 20 | 21 | 0.0 | 1.6 | 0.00 | 0.00 | 0.00 | 95 | 1022.6 |
| 20260830124044 | 20 | 21 | 0.0 | 1.6 | 0.00 | 0.00 | 0.00 | 95 | 1022.7 |
| 20260830123803 | 20 | 16 | 0.0 | 0.0 | 0.00 | 0.00 | 0.00 | 95 | 1022.6 |
| 20260830123031 | 20 | 88 | 0.0 | 0.0 | 0.00 | 0.00 | 0.00 | 95 | 1022.5 |
| 20260830122520 | 20 | 88 | 0.0 | 0.0 | 0.00 | 0.00 | 0.00 | 95 | 1022.5 |